{"data":{"norad_id":55400,"intl_designator":"2023-014K","name":"STARLINK-5632","alt_names":[],"object_type":"PAYLOAD","status":"ACTIVE","operator":null,"country":"US","launch_date":"2023-01-31","launch_site_code":"AFWTR","launch_vehicle":null,"mission":null,"orbit_class":"UNKNOWN","rcs_meters":null,"size_class":null,"mass_kg":null,"dimensions":null,"purposes":["comms"],"wikipedia_slug":null,"has_3d_model":false,"image_url":null,"decayed_at":null,"tle_current":{"epoch":"2026-09-20T11:39:15.330240Z","epoch_age_seconds":97928,"freshness":"FRESH","line1":"1 55400U 23014K   26263.48559410 -.00000994  00000+0 -75504-4 0  9997","line2":"2 55400  69.9967 293.3116 0003867 267.0691  93.0025 14.98338170201233","mean_motion":14.9833817,"eccentricity":0.0003867,"inclination_deg":69.9967,"raan_deg":293.3116,"arg_perigee_deg":267.0691,"mean_anomaly_deg":93.0025,"bstar":-7.5504e-5,"rev_number":20123,"period_min":96.106475082324,"perigee_km":569.34299618719,"apogee_km":574.71825582914,"semimajor_km":6950.1676260082,"source":"CELESTRAK","updated_at":"2026-09-21T09:00:33.215063Z"}}}